CW8078 Weather Reports


time (UTC)temp
C
wind
direction
speed
KPH
gust
KPH
rain 1hr
cm
rain 24hr
cm
rain mn
cm
humidity
%
barometer
mb
20260509230303 25 166 0.0 0.0 0.00 1.24 0.00 50 1005.7
20260509224302 25 166 0.0 0.0 0.00 1.30 0.00 48 1005.7
20260509223803 25 166 0.0 0.0 0.00 1.30 0.00 48 1005.7
20260509221803 25 171 0.0 3.2 0.00 1.30 0.00 48 1005.6
20260509221302 26 173 0.0 0.0 0.00 1.30 0.00 48 1005.6
20260509220803 26 171 0.0 0.0 0.00 1.30 0.00 47 1005.6
20260509220302 26 173 0.0 0.0 0.00 1.30 0.00 43 1005.7
20260509214802 26 229 0.0 0.0 0.00 1.30 0.00 46 1005.8
20260509213803 26 231 0.0 0.0 0.00 1.32 0.00 48 1005.8
20260509211803 26 207 0.0 0.0 0.00 1.32 0.00 44 1006.0
20260509211303 26 203 0.0 0.0 0.00 1.32 0.00 46 1006.1
20260509210803 26 199 0.0 0.0 0.00 1.32 0.00 45 1006.1
20260509210303 26 225 0.0 0.0 0.00 1.32 0.00 49 1006.1
20260509204802 26 232 0.0 0.0 0.00 1.32 0.00 45 1006.3
20260509204302 26 232 0.0 0.0 0.00 1.32 0.00 43 1006.3
20260509203802 26 267 0.0 0.0 0.00 1.32 0.00 45 1006.3
20260509201802 26 214 0.0 0.0 0.00 1.32 0.00 43 1006.4
20260509201302 26 311 0.0 3.2 0.00 1.32 0.00 47 1006.5
20260509200803 26 278 0.0 0.0 0.00 1.32 0.00 46 1006.5
20260509200302 26 207 0.0 0.0 0.00 1.32 0.00 42 1006.4
20260509194803 26 246 0.0 4.8 0.00 1.32 0.00 46 1006.6
20260509194302 26 111 0.0 0.0 0.00 1.32 0.00 47 1006.5
20260509193803 26 107 0.0 1.6 0.00 1.32 0.00 42 1006.6
20260509193302 26 189 0.0 0.0 0.00 1.32 0.00 47 1006.7
20260509191803 26 211 0.0 0.0 0.00 1.32 0.00 47 1006.7
20260509190803 26 323 0.0 0.0 0.00 1.32 0.00 48 1006.8
20260509190303 25 311 0.0 0.0 0.00 1.32 0.00 47 1006.8
20260509184303 25 181 0.0 0.0 0.00 1.32 0.00 51 1007.0
20260509183803 25 219 0.0 3.2 0.00 1.32 0.00 48 1007.1
20260509183303 25 252 0.0 3.2 0.00 1.32 0.00 53 1007.1
20260509181803 25 256 0.0 1.6 0.00 1.32 0.00 52 1007.2
20260509181303 25 275 0.0 0.0 0.00 1.32 0.00 54 1007.3
20260509180803 25 203 0.0 0.0 0.00 1.32 0.00 54 1007.3
20260509180302 25 214 0.0 4.8 0.00 1.32 0.00 54 1007.3
20260509174803 25 206 0.0 0.0 0.00 1.32 0.00 59 1007.4
20260509174302 25 209 0.0 0.0 0.00 1.32 0.00 58 1007.5
20260509173802 24 220 0.0 0.0 0.00 1.32 0.00 60 1007.5
20260509173303 24 209 0.0 1.6 0.00 1.32 0.00 56 1007.7
20260509171802 24 240 0.0 0.0 0.00 1.32 0.00 60 1007.9
20260509171302 23 243 0.0 0.0 0.00 1.32 0.00 59 1007.8
20260509170803 23 221 0.0 1.6 0.00 1.32 0.00 63 1007.9
20260509170303 23 223 0.0 4.8 0.00 1.32 0.00 62 1007.9
20260509163803 22 217 0.0 0.0 0.00 1.32 0.00 68 1007.8
20260509163303 22 202 0.0 3.2 0.00 1.32 0.00 70 1007.8
20260509161803 21 278 0.0 0.0 0.00 1.32 0.00 73 1007.7
20260509161303 21 199 0.0 3.2 0.00 1.32 0.00 72 1007.8
20260509160803 20 202 0.0 3.2 0.00 1.32 0.00 75 1007.6
20260509160303 20 219 0.0 0.0 0.00 1.32 0.00 79 1007.7
20260509154803 19 212 0.0 0.0 0.00 1.32 0.00 82 1007.7
20260509153802 18 218 0.0 1.6 0.00 1.32 0.00 82 1007.7
20260509153302 18 174 0.0 3.2 0.00 1.32 0.00 84 1007.6
20260509151803 17 166 0.0 3.2 0.00 1.32 0.00 86 1007.7
20260509150803 17 205 0.0 0.0 0.00 1.32 0.00 88 1007.7
20260509150303 17 205 0.0 1.6 0.00 1.32 0.00 89 1007.7
20260509144303 16 134 0.0 0.0 0.00 1.32 0.00 92 1007.8
20260509143303 16 203 0.0 0.0 0.00 1.32 0.00 93 1007.6
20260509141803 15 184 0.0 0.0 0.00 1.32 0.00 95 1007.6
20260509141303 15 184 0.0 0.0 0.00 1.32 0.00 95 1007.6
20260509140303 15 159 0.0 0.0 0.00 1.32 0.00 95 1007.5
20260509134803 14 159 0.0 0.0 0.00 1.32 0.00 96 1007.6
20260509134303 14 159 0.0 0.0 0.00 1.32 0.00 95 1007.6
20260509133803 14 159 0.0 0.0 0.00 1.32 0.00 95 1007.4
20260509133303 14 159 0.0 0.0 0.00 1.32 0.00 95 1007.5
20260509131803 13 159 0.0 0.0 0.00 1.32 0.00 95 1007.4
20260509130303 13 159 0.0 0.0 0.00 1.32 0.00 95 1007.4
20260509124803 13 159 0.0 0.0 0.00 1.32 0.00 95 1007.1
20260509123803 13 159 0.0 0.0 0.00 1.32 0.00 95 1007.0
20260509123303 13 159 0.0 0.0 0.00 1.32 0.00 95 1007.0
20260509121302 13 159 0.0 0.0 0.00 1.32 0.00 95 1007.2
20260509120303 13 159 0.0 0.0 0.00 1.32 0.00 95 1007.0
20260509114302 12 159 0.0 0.0 0.00 1.32 0.00 95 1007.0
20260509113803 12 159 0.0 0.0 0.00 1.32 0.00 95 1007.0
20260509113303 12 159 0.0 0.0 0.00 1.32 0.00 95 1007.0
20260509111803 12 159 0.0 0.0 0.00 1.32 0.00 95 1007.0
20260509111303 12 159 0.0 0.0 0.00 1.32 0.00 95 1007.0
20260509110303 12 159 0.0 0.0 0.00 1.32 0.00 95 1006.9
20260509104803 12 158 0.0 0.0 0.00 1.32 0.00 95 1006.8
20260509103803 12 158 0.0 0.0 0.00 1.32 0.00 95 1006.8
20260509103303 12 158 0.0 0.0 0.00 1.32 0.00 95 1006.8
20260509101803 12 158 0.0 0.0 0.00 1.32 0.00 95 1006.8
20260509101303 12 158 0.0 0.0 0.00 1.32 0.00 95 1006.8
20260509100803 12 158 0.0 0.0 0.00 1.32 0.00 95 1006.8
20260509100303 12 158 0.0 0.0 0.00 1.32 0.00 95 1006.8
20260509094803 12 158 0.0 0.0 0.00 1.32 0.00 95 1006.8
20260509094304 12 124 0.0 0.0 0.00 1.32 0.00 95 1006.7
20260509093803 12 124 0.0 0.0 0.00 1.32 0.00 95 1006.8
20260509093303 12 124 0.0 0.0 0.00 1.32 0.00 95 1006.8
20260509091802 12 124 0.0 0.0 0.00 1.32 0.00 95 1006.8
20260509091303 12 124 0.0 0.0 0.00 1.32 0.00 95 1006.7
20260509090803 12 124 0.0 0.0 0.00 1.32 0.00 95 1006.7
20260509090303 12 124 0.0 0.0 0.00 1.32 0.00 95 1006.6
20260509084803 12 139 0.0 0.0 0.00 1.32 0.00 95 1006.4
20260509084303 12 139 0.0 0.0 0.00 1.32 0.00 95 1006.5
20260509083802 12 139 0.0 0.0 0.00 1.32 0.00 95 1006.4
20260509083303 12 139 0.0 0.0 0.00 1.32 0.00 95 1006.3
20260509081803 12 139 0.0 0.0 0.00 1.32 0.00 95 1006.2
20260509081302 12 139 0.0 0.0 0.00 1.32 0.00 95 1006.1
20260509080803 12 139 0.0 0.0 0.00 1.32 0.00 95 1006.1
20260509074303 12 139 0.0 0.0 0.00 1.32 0.00 95 1006.2
20260509073803 12 139 0.0 0.0 0.00 1.32 0.00 95 1006.3
20260509073303 12 139 0.0 0.0 0.00 1.32 0.00 95 1006.3
20260509071803 12 139 0.0 0.0 0.00 1.32 0.00 95 1006.4
20260509070803 12 139 0.0 0.0 0.00 1.32 0.00 95 1006.4
20260509070303 12 139 0.0 0.0 0.00 1.32 0.00 95 1006.3
20260509064803 12 139 0.0 0.0 0.00 1.32 0.00 95 1006.3
20260509064303 12 139 0.0 0.0 0.00 1.32 0.00 94 1006.3
20260509063303 12 139 0.0 0.0 0.00 1.32 0.00 94 1006.4
20260509061804 12 139 0.0 0.0 0.00 1.32 0.00 94 1006.5
20260509061303 12 139 0.0 0.0 0.00 1.32 0.00 94 1006.6
20260509060803 12 139 0.0 0.0 0.00 1.32 0.00 94 1006.6
20260509060303 12 139 0.0 0.0 0.00 1.32 0.00 94 1006.6
20260509054803 12 139 0.0 0.0 0.00 1.32 0.00 94 1006.6
20260509054303 12 139 0.0 0.0 0.00 1.32 0.00 94 1006.6
20260509053803 12 139 0.0 0.0 0.00 1.32 0.00 94 1006.6
20260509053303 12 139 0.0 0.0 0.00 1.32 0.00 94 1006.7
20260509051804 12 139 0.0 0.0 0.00 1.32 0.00 94 1006.7
20260509051303 12 139 0.0 0.0 0.00 1.32 0.00 94 1006.8
20260509050803 12 139 0.0 0.0 0.00 1.32 0.00 94 1006.7
20260509050303 12 139 0.0 0.0 0.00 1.32 0.00 94 1006.8
20260509044803 12 139 0.0 0.0 0.00 1.32 1.32 94 1006.8
20260509044303 12 139 0.0 0.0 0.00 1.32 1.32 94 1006.8
20260509043803 12 139 0.0 0.0 0.00 1.32 1.32 94 1006.8
20260509043303 12 139 0.0 0.0 0.00 1.32 1.32 94 1006.5
20260509041803 13 139 0.0 0.0 0.00 1.32 1.32 94 1006.5
20260509041303 13 139 0.0 0.0 0.00 1.32 1.32 94 1006.6
20260509040804 13 139 0.0 0.0 0.00 1.32 1.32 94 1006.6
20260509040303 13 139 0.0 0.0 0.00 1.32 1.32 94 1006.7
20260509034803 13 139 0.0 0.0 0.00 1.32 1.32 94 1006.8
20260509034303 13 139 0.0 0.0 0.03 1.32 1.32 94 1006.9
20260509033803 13 139 0.0 0.0 0.03 1.32 1.32 94 1006.9
20260509033303 13 139 0.0 0.0 0.03 1.32 1.32 94 1006.8
20260509031803 13 139 0.0 0.0 0.03 1.32 1.32 94 1006.7
20260509031303 13 139 0.0 0.0 0.03 1.32 1.32 94 1006.6
20260509030803 13 139 0.0 0.0 0.03 1.32 1.32 94 1006.6
20260509030303 13 139 0.0 0.0 0.03 1.32 1.32 94 1006.7
20260509024803 13 139 0.0 0.0 0.08 1.32 1.32 94 1006.8
20260509024303 13 139 0.0 0.0 0.10 1.30 1.30 94 1006.9
20260509023803 13 139 0.0 0.0 0.15 1.30 1.30 94 1006.9
20260509023303 13 139 0.0 0.0 0.20 1.30 1.30 93 1006.9
20260509021803 13 140 0.0 0.0 0.36 1.30 1.30 93 1007.0
20260509021303 13 140 0.0 0.0 0.41 1.30 1.30 93 1006.8
20260509020804 13 140 0.0 0.0 0.43 1.30 1.30 93 1006.9
20260509020303 13 140 0.0 0.0 0.48 1.30 1.30 93 1007.0
20260509013803 13 140 0.0 0.0 0.58 1.14 1.14 93 1007.2
20260509013304 13 140 0.0 0.0 0.61 1.09 1.09 93 1007.3
20260509011804 13 140 0.0 0.0 0.76 0.94 0.94 92 1007.0
20260509010803 13 140 0.0 0.0 0.79 0.86 0.86 92 1006.9
20260509010303 14 202 0.0 0.0 0.74 0.81 0.81 91 1007.3
20260509004803 15 277 0.0 0.0 0.58 0.66 0.66 92 1007.5
20260509004303 15 277 0.0 0.0 0.56 0.64 0.64 92 1007.7
20260509003803 15 277 0.0 0.0 0.48 0.56 0.56 92 1007.6
20260509001803 15 341 0.0 0.0 0.10 0.18 0.18 92 1007.4
20260509001303 15 342 0.0 0.0 0.03 0.10 0.10 92 1006.9
20260509000803 15 18 0.0 0.0 0.00 0.08 0.08 92 1006.5
20260509000303 15 20 0.0 0.0 0.00 0.08 0.08 91 1006.2
20260508233803 15 44 0.0 0.0 0.05 0.08 0.08 91 1006.0
20260508233304 15 5 0.0 1.6 0.05 0.08 0.08 90 1006.1
20260508231804 16 343 0.0 3.2 0.05 0.08 0.08 91 1006.4
20260508231304 16 6 0.0 4.8 0.05 0.08 0.08 91 1006.4
20260508230803 16 25 0.0 0.0 0.05 0.08 0.08 90 1006.5